[[[{"header":{"parameterUnit":"kt","parameterCategory":2,"dx":1,"dy":1,"la1":30.253999710083008,"la2":30.299108505249023,"lo1":-89.0895004272461,"lo2":-89.04439544677734,"nx":28,"ny":28,"refTime":"2022-10-19T09:00:00:Z","depth":0,"parameterNumber":1,"parameterNumberName":"U-component_of_WINDS"},"data":[2.9438,2.9447,2.9418,2.9416,2.9389,2.9382,2.937,2.9352,2.933,2.9318,2.9306,2.9278,2.9243,2.9222,2.9207,2.9194,2.9189,2.9215,2.9195,2.9109,2.9095,2.9081,2.9077,2.9215,2.9215,2.9288,2.9289,2.9289,2.938,2.9354,2.9344,2.9314,2.9306,2.9264,2.9237,2.9232,2.9227,2.92,2.9186,2.9173,2.9158,2.9114,2.9095,2.9098,2.9077,2.9095,2.9093,2.9088,2.8996,2.8991,2.9113,2.9113,2.9113,2.9113,2.9113,2.9113,2.9267,2.9273,2.9238,2.9226,2.9203,2.9183,2.9184,2.9148,2.9138,2.9114,2.908,2.9073,2.9039,2.9001,2.898,2.8974,2.8947,2.8958,2.896,2.8963,2.897,2.8868,2.8969,2.8969,2.8968,2.8968,2.8968,0,2.9174,2.9149,2.9136,2.9116,2.9105,2.9086,2.9063,2.9063,2.8997,2.8991,2.898,2.8968,2.8944,2.8929,2.8904,2.8879,2.8833,2.8825,2.8832,2.8847,2.8865,2.8854,2.8703,2.8821,2.882,2.8819,2.8818,2.8818,2.9056,2.9067,2.9015,2.901,2.8989,2.8983,2.8972,2.8913,2.8905,2.8868,2.8876,2.8861,2.8844,2.883,2.8786,2.8768,2.8744,2.8793,2.8741,2.8757,2.8743,2.8742,2.8743,2.8803,2.8805,2.8807,2.8808,0,2.8992,2.8942,2.8949,2.8895,2.8882,2.8897,2.885,2.8854,2.8817,2.8817,2.8813,2.8755,2.8744,2.8691,2.8667,2.864,2.8663,2.8642,2.8675,2.8667,2.8704,2.8701,2.8835,2.885,2.8707,2.8709,2.871,0,2.8871,2.8888,2.8811,2.8818,2.8835,2.8774,2.8792,2.8761,2.873,2.8729,2.8668,2.8669,2.86,2.8593,2.8552,2.8562,2.8558,2.8537,2.8525,2.8541,2.8544,2.8533,2.8526,2.85,2.85,2.8499,2.8499,0,2.8775,2.8753,2.8764,2.875,2.8693,2.8699,2.8676,2.8639,2.8629,2.8607,2.8599,2.8579,2.8567,2.8553,2.85,2.8467,2.8511,2.8454,2.8489,2.849,2.8499,2.8499,2.8633,2.8498,2.8498,2.8497,2.8497,0,2.8668,2.8647,2.867,2.862,2.8616,2.8624,2.8598,2.8592,2.8557,2.8532,2.8514,2.8465,2.8469,2.8417,2.8422,2.8393,2.8386,2.8366,2.8367,2.8362,2.8304,2.8385,2.852,2.8532,2.8361,2.836,2.8359,0,2.8571,2.858,2.8527,2.855,2.8546,2.8476,2.8483,2.8454,2.842,2.8411,2.8373,2.8364,2.8314,2.8303,2.8313,2.8273,2.831,2.8266,2.8254,2.8254,2.8264,2.8388,2.8421,2.8497,2.8344,2.8345,2.8346,0,2.8489,2.8417,2.8425,2.8406,2.8357,2.8353,2.8361,2.8338,2.8335,2.8309,2.8313,2.8299,2.826,2.8243,2.82,2.8213,2.8283,2.8169,2.8167,2.819,2.8332,2.8362,2.8376,2.8252,2.8253,2.8255,2.8334,0,2.8337,2.8334,2.8353,2.8313,2.8301,2.8312,2.8253,2.8249,2.8209,2.8171,2.8177,2.8137,2.8113,2.8113,2.8073,2.812,2.8103,2.8061,2.8003,2.8087,2.8111,2.8121,2.7972,2.797,2.7969,2.7967,0,0,2.8256,2.825,2.8189,2.8193,2.8179,2.8104,2.8121,2.8099,2.8055,2.8047,2.8016,2.799,2.7958,2.797,2.7992,2.7982,2.7985,2.7957,2.8048,2.8057,2.8066,2.8093,2.8105,2.7964,2.7963,2.7963,2.7962,0,2.8187,2.8157,2.8174,2.8148,2.8107,2.8066,2.8071,2.8016,2.7992,2.7997,2.7934,2.793,2.791,2.7885,2.7869,2.7955,2.7906,2.7953,2.8018,2.8033,2.8045,2.8054,2.8084,2.8096,2.7958,2.7958,2.7958,0,2.8094,2.8054,2.8056,2.802,2.7992,2.7989,2.7915,2.7915,2.7913,2.7828,2.7833,2.7803,2.7763,2.7783,2.779,2.776,2.7839,2.7803,2.7812,2.7811,2.7822,2.7836,2.7848,2.7683,2.7683,2.7682,0,0,2.8042,2.8038,2.7975,2.8,2.7987,2.7926,2.7918,2.7876,2.7842,2.7828,2.7787,2.7756,2.7744,2.7737,2.7722,2.7752,2.7738,2.7772,2.7785,2.7796,2.78,2.7814,2.7828,2.7679,2.7679,2.7679,0,0,2.8017,2.7944,2.7909,2.7931,2.7901,2.7839,2.7857,2.7812,2.7792,2.7784,2.7712,2.77,2.7718,2.7689,2.7661,2.77,2.7644,2.765,2.7717,2.7732,2.7745,2.775,2.7577,0,0,0,0,0,2.7914,2.7953,2.7922,2.7917,2.787,2.7857,2.7851,2.7792,2.7754,2.777,2.7728,2.7676,2.7659,2.7632,2.7628,2.7659,2.7645,2.7651,2.7657,2.775,2.7767,2.7781,0,0,0,0,0,0,2.7911,2.7905,2.7921,2.7862,2.7851,2.7855,2.7778,2.7763,2.7751,2.7741,2.7686,2.7675,2.7624,2.7631,2.7628,2.7659,2.7578,2.7647,2.7652,2.7657,2.7756,2.777,2.7781,0,0,0,0,0,2.7909,2.7903,2.7843,2.7861,2.7851,2.7783,2.7776,2.7763,2.7753,2.7687,2.7674,2.771,2.7627,2.762,2.7628,2.7662,2.758,2.7579,2.7651,2.7655,2.7658,2.7762,0,0,0,0,0,0,2.7907,2.7891,2.784,2.7835,2.7841,2.7782,2.777,2.7763,2.7698,2.7685,2.7707,2.77,2.7629,2.7623,2.7619,2.7666,2.7581,2.758,2.758,2.7654,2.7657,2.766,0,0,0,0,0,0,2.7894,2.7887,2.7837,2.7816,2.7807,2.7781,2.7771,2.7769,2.7698,2.7721,2.7713,2.7705,2.7636,2.7626,2.7622,2.7622,2.7582,2.7581,2.7581,2.758,2.7656,2.7659,0,0,0,0,0,0,2.789,2.7885,2.7816,2.781,2.7803,2.7741,2.7778,2.7733,2.768,2.7725,2.7674,2.7671,2.764,2.7635,2.7625,2.7627,2.7623,2.7582,2.7582,2.7581,2.7581,0,0,0,0,0,0,0,2.7887,2.7937,2.7871,2.7806,2.7799,2.7788,2.7786,2.7785,2.768,2.7677,2.7674,2.7672,2.7588,2.7587,2.7586,2.7631,0,0,2.7582,2.7582,0,0,0,0,0,0,0,0,2.7938,2.7937,2.787,2.7869,2.7868,2.7787,2.7786,2.7785,2.7679,2.7677,2.7675,2.7673,2.7587,2.7587,2.7586,0,0,0,0,0,0,0,0,0,0,0,0,0,0,0,2.787,2.787,0,2.7787,2.7786,2.7785,2.7679,2.7677,2.7675,2.7674,2.7587,2.7587,2.7586,0,0,0,0,0,0,0,0,0,0,0,0,0,0,0,0,0,0,0,0,0,0,0,0,0,0,0,0,0,0,0,0,0,0,0,0,0,0,0,0,0,0,0,0,0,0,0,0,0,0,0,0,0,0,0,0,0,0,0,0,0,0,0,0,0,0,0,0,0]}],[{"header":{"parameterUnit":"kt","parameterCategory":2,"dx":1,"dy":1,"la1":30.253999710083008,"la2":30.299108505249023,"lo1":-89.0895004272461,"lo2":-89.04439544677734,"nx":28,"ny":28,"refTime":"2022-10-19T09:00:00:Z","depth":0,"parameterNumber":2,"parameterNumberName":"V-component_of_WINDS"},"data":[-5.877,-5.8896,-5.8942,-5.9107,-5.9176,-5.9296,-5.9353,-5.9432,-5.9506,-5.9653,-5.9746,-5.9804,-5.9895,-6.0015,-6.0117,-6.014,-6.0178,-6.0189,-6.0214,-6.0127,-6.0117,-6.0108,-6.0081,-6.0198,-6.0198,-6.0298,-6.0299,-6.0299,-5.8699,-5.8769,-5.8871,-5.9,-5.9087,-5.9104,-5.9208,-5.9278,-5.9384,-5.9477,-5.9571,-5.9704,-5.9815,-5.9904,-6.0017,-6.0075,-6.0089,-6.0102,-6.0097,-6.0111,-6.0019,-5.999,-6.009,-6.009,-6.009,-6.009,-6.009,-6.0089,-5.8582,-5.8657,-5.8762,-5.8873,-5.8951,-5.9037,-5.9115,-5.9186,-5.9285,-5.941,-5.9446,-5.9567,-5.9667,-5.9827,-5.9891,-5.9985,-5.9978,-6.0007,-6.0013,-6.0019,-6.0018,-5.9863,-6.0007,-6.0007,-6.0007,-6.0007,-6.0007,0,-5.851,-5.8544,-5.8645,-5.876,-5.8843,-5.8936,-5.9029,-5.9079,-5.9165,-5.9243,-5.9359,-5.9434,-5.9581,-5.9694,-5.9811,-5.9873,-5.9896,-5.9905,-5.9924,-5.9906,-5.9875,-5.989,-5.9736,-5.9899,-5.9898,-5.9898,-5.9897,-5.9897,-5.8393,-5.8476,-5.8609,-5.8673,-5.8736,-5.8839,-5.891,-5.8981,-5.9052,-5.9176,-5.9237,-5.9353,-5.9449,-5.9627,-5.9706,-5.9816,-5.9827,-5.9884,-5.9844,-5.9824,-5.9825,-5.9818,-5.9825,-5.9889,-5.989,-5.9891,-5.9892,0,-5.8322,-5.8398,-5.8541,-5.8665,-5.8699,-5.8781,-5.8886,-5.8963,-5.9024,-5.9138,-5.9168,-5.9263,-5.9375,-5.9447,-5.959,-5.9624,-5.9756,-5.9767,-5.9721,-5.9726,-5.9782,-5.9774,-5.9958,-5.9984,-5.9867,-5.9868,-5.9869,0,-5.825,-5.8356,-5.8463,-5.8542,-5.8661,-5.873,-5.8845,-5.8909,-5.8998,-5.9088,-5.9129,-5.9212,-5.9292,-5.9385,-5.9435,-5.9557,-5.9584,-5.9616,-5.9627,-5.9611,-5.9606,-5.9646,-5.9639,-5.9654,-5.9653,-5.9652,-5.9651,0,-5.8128,-5.8311,-5.844,-5.8494,-5.8637,-5.8695,-5.8757,-5.8858,-5.8926,-5.9027,-5.9071,-5.9183,-5.9244,-5.9329,-5.9391,-5.9361,-5.9543,-5.9514,-5.9575,-5.9573,-5.9608,-5.9604,-5.9752,-5.965,-5.965,-5.965,-5.9649,0,-5.8081,-5.8184,-5.836,-5.8479,-5.8524,-5.861,-5.8725,-5.8815,-5.8918,-5.8955,-5.9035,-5.9069,-5.9183,-5.9149,-5.9306,-5.9248,-5.9305,-5.9347,-5.9352,-5.9364,-5.9322,-5.9391,-5.9528,-5.9543,-5.9378,-5.9376,-5.9374,0,-5.7919,-5.8118,-5.8179,-5.8345,-5.8447,-5.8484,-5.858,-5.8671,-5.8729,-5.8822,-5.8886,-5.8992,-5.8982,-5.9025,-5.9094,-5.9163,-5.9238,-5.9155,-5.9284,-5.9288,-5.9252,-5.938,-5.938,-5.949,-5.9346,-5.9349,-5.9351,0,-5.7802,-5.7977,-5.8002,-5.8066,-5.8199,-5.8284,-5.8395,-5.8516,-5.8574,-5.8673,-5.8765,-5.8917,-5.8915,-5.8985,-5.9025,-5.9093,-5.9189,-5.9081,-5.9084,-5.9095,-5.9339,-5.9339,-5.9357,-5.9201,-5.9204,-5.9207,-5.9329,0,-5.7708,-5.7818,-5.7892,-5.8032,-5.811,-5.8219,-5.8297,-5.8369,-5.8399,-5.8458,-5.8597,-5.869,-5.8812,-5.8853,-5.8883,-5.9017,-5.9005,-5.9001,-5.897,-5.9054,-5.9096,-5.9113,-5.8901,-5.8901,-5.8901,-5.89,0,0,-5.7531,-5.7692,-5.7755,-5.7866,-5.7935,-5.7973,-5.8082,-5.8154,-5.8298,-5.8344,-5.8328,-5.8555,-5.8631,-5.8791,-5.8823,-5.8874,-5.8903,-5.8871,-5.9014,-5.9027,-5.9038,-5.9082,-5.9099,-5.89,-5.8899,-5.8899,-5.8899,0,-5.7512,-5.7594,-5.7702,-5.778,-5.7898,-5.7955,-5.7981,-5.8103,-5.8146,-5.8284,-5.8311,-5.8403,-5.8583,-5.8659,-5.8722,-5.8855,-5.8868,-5.8887,-5.8931,-5.9008,-5.9021,-5.9032,-5.9077,-5.9093,-5.8898,-5.8898,-5.8898,0,-5.7409,-5.7501,-5.7562,-5.7724,-5.7801,-5.7905,-5.7893,-5.8004,-5.8082,-5.8115,-5.825,-5.8312,-5.8421,-5.8564,-5.863,-5.8617,-5.8831,-5.8779,-5.8783,-5.8791,-5.8869,-5.8884,-5.8898,-5.8716,-5.8715,-5.8714,0,0,-5.7381,-5.7486,-5.7605,-5.7726,-5.7773,-5.786,-5.7924,-5.7961,-5.8059,-5.8098,-5.8178,-5.8272,-5.8377,-5.8445,-5.8547,-5.8693,-5.872,-5.8753,-5.8762,-5.8768,-5.878,-5.8859,-5.8874,-5.8711,-5.8711,-5.871,0,0,-5.7368,-5.7511,-5.7525,-5.7676,-5.777,-5.7894,-5.7964,-5.7983,-5.8084,-5.8079,-5.8146,-5.8174,-5.8308,-5.8368,-5.8311,-5.8537,-5.8505,-5.852,-5.8493,-5.8505,-5.8513,-5.8494,-5.8309,0,0,0,0,0,-5.7388,-5.7494,-5.7505,-5.7542,-5.7747,-5.7888,-5.7914,-5.7972,-5.7948,-5.8002,-5.8072,-5.8083,-5.835,-5.8302,-5.8336,-5.8398,-5.8664,-5.8672,-5.868,-5.8679,-5.8691,-5.8701,0,0,0,0,0,0,-5.7403,-5.7449,-5.7503,-5.763,-5.7677,-5.7885,-5.7856,-5.7875,-5.7944,-5.7944,-5.8069,-5.8087,-5.8138,-5.8288,-5.8318,-5.8376,-5.8299,-5.8667,-5.8674,-5.8681,-5.8683,-5.8693,-5.8701,0,0,0,0,0,-5.7416,-5.7452,-5.7765,-5.7629,-5.767,-5.7772,-5.7853,-5.7868,-5.7922,-5.8031,-5.8049,-5.796,-5.8138,-5.8168,-5.8306,-5.836,-5.8278,-5.8289,-5.8672,-5.8677,-5.8682,-5.8688,0,0,0,0,0,0,-5.7425,-5.7467,-5.7775,-5.7789,-5.7594,-5.7762,-5.779,-5.7862,-5.8005,-5.8024,-5.7924,-5.7922,-5.814,-5.8162,-5.8185,-5.8352,-5.8261,-5.8273,-5.828,-5.8676,-5.868,-5.8684,0,0,0,0,0,0,-5.7447,-5.7478,-5.7782,-5.7735,-5.7744,-5.7752,-5.7777,-5.7903,-5.8007,-5.7891,-5.7894,-5.7921,-5.8105,-5.8159,-5.8176,-5.8371,-5.8248,-5.8259,-5.8267,-5.8271,-5.868,-5.8683,0,0,0,0,0,0,-5.7461,-5.7488,-5.7731,-5.7738,-5.7747,-5.7913,-5.7864,-5.807,-5.7967,-5.7884,-5.796,-5.7956,-5.8101,-5.812,-5.8171,-5.8358,-5.8368,-5.8249,-5.8256,-5.8261,-5.8265,0,0,0,0,0,0,0,-5.7473,-5.7281,-5.769,-5.7742,-5.7749,-5.7922,-5.7926,-5.793,-5.7967,-5.7963,-5.796,-5.7958,-5.8187,-5.8198,-5.821,-5.8347,0,0,-5.8248,-5.8253,0,0,0,0,0,0,0,0,-5.7271,-5.7278,-5.769,-5.7693,-5.7696,-5.7923,-5.7926,-5.7929,-5.7966,-5.7964,-5.7961,-5.7959,-5.819,-5.8199,-5.8209,0,0,0,0,0,0,0,0,0,0,0,0,0,0,0,-5.769,-5.7693,0,-5.7924,-5.7926,-5.7929,-5.7966,-5.7964,-5.7962,-5.796,-5.8193,-5.82,-5.8208,0,0,0,0,0,0,0,0,0,0,0,0,0,0,0,0,0,0,0,0,0,0,0,0,0,0,0,0,0,0,0,0,0,0,0,0,0,0,0,0,0,0,0,0,0,0,0,0,0,0,0,0,0,0,0,0,0,0,0,0,0,0,0,0,0,0,0,0,0]}]]]